N5GMJ Weather Reports


time (UTC)temp
C
wind
direction
speed
KPH
gust
KPH
rain 1hr
cm
rain 24hr
cm
rain mn
cm
humidity
%
barometer
mb
20260509222545 30 155 1.6 11.3 0.00 0.00 0.00 49 1009.0
20260509222041 30 153 1.6 6.4 0.00 0.00 0.00 49 1009.0
20260509221537 31 163 3.2 6.4 0.00 0.00 0.00 48 1009.2
20260509221033 31 157 3.2 9.7 0.00 0.00 0.00 46 1009.1
20260509220529 30 130 0.0 4.8 0.00 0.00 0.00 49 1009.0
20260509220026 30 197 6.4 11.3 0.00 0.00 0.00 50 1009.1
20260509215521 30 137 4.8 9.7 0.00 0.00 0.00 49 1009.2
20260509215019 30 141 3.2 6.4 0.00 0.00 0.00 47 1009.3
20260509214516 30 136 0.0 3.2 0.00 0.00 0.00 47 1009.2
20260509214013 30 135 6.4 9.7 0.00 0.00 0.00 49 1009.3
20260509213509 31 156 9.7 11.3 0.00 0.00 0.00 48 1009.4
20260509213006 31 9 0.0 3.2 0.00 0.00 0.00 50 1009.3
20260509212503 30 134 6.4 9.7 0.00 0.00 0.00 50 1009.4
20260509211959 30 172 6.4 9.7 0.00 0.00 0.00 49 1009.4
20260509211455 30 117 3.2 6.4 0.00 0.00 0.00 49 1009.5
20260509210952 31 161 6.4 6.4 0.00 0.00 0.00 49 1009.5
20260509210449 31 191 4.8 9.7 0.00 0.00 0.00 49 1009.7
20260509205944 31 229 4.8 4.8 0.00 0.00 0.00 49 1009.7
20260509205439 30 170 6.4 9.7 0.00 0.00 0.00 50 1009.8
20260509204935 30 173 4.8 9.7 0.00 0.00 0.00 49 1009.9
20260509204431 30 135 6.4 11.3 0.00 0.00 0.00 47 1010.0
20260509203928 31 102 8.0 9.7 0.00 0.00 0.00 49 1010.0
20260509203424 31 0 1.6 6.4 0.00 0.00 0.00 48 1010.0
20260509202922 31 356 3.2 4.8 0.00 0.00 0.00 45 1010.0
20260509202417 31 281 1.6 4.8 0.00 0.00 0.00 48 1010.2
20260509201913 30 274 3.2 6.4 0.00 0.00 0.00 43 1010.4
20260509201408 30 299 6.4 6.4 0.00 0.00 0.00 44 1010.2
20260509200906 30 308 4.8 6.4 0.00 0.00 0.00 45 1010.1
20260509200405 31 63 4.8 6.4 0.00 0.00 0.00 46 1010.3
20260509195902 31 294 1.6 4.8 0.00 0.00 0.00 50 1010.5
20260509195402 31 107 1.6 6.4 0.00 0.00 0.00 46 1010.4
20260509194902 31 85 1.6 6.4 0.00 0.00 0.00 45 1010.3
20260509194359 30 119 1.6 3.2 0.00 0.00 0.00 45 1010.6
20260509193855 30 314 4.8 6.4 0.00 0.00 0.00 47 1010.8
20260509193355 30 268 3.2 4.8 0.00 0.00 0.00 47 1010.7
20260509192852 30 303 4.8 6.4 0.00 0.00 0.00 49 1011.0
20260509192348 30 324 4.8 4.8 0.00 0.00 0.00 47 1011.0
20260509191843 31 47 1.6 3.2 0.00 0.00 0.00 50 1010.8
20260509191339 30 357 3.2 6.4 0.00 0.00 0.00 44 1010.8
20260509190836 29 328 3.2 9.7 0.00 0.00 0.00 49 1010.9
20260509190332 29 317 4.8 4.8 0.00 0.00 0.00 49 1010.9
20260509185830 28 296 4.8 4.8 0.00 0.00 0.00 51 1011.0
20260509185326 29 304 3.2 9.7 0.00 0.00 0.00 52 1011.1
20260509184824 30 281 1.6 3.2 0.00 0.00 0.00 52 1011.4
20260509184321 30 28 1.6 3.2 0.00 0.00 0.00 50 1011.1
20260509183818 30 87 1.6 3.2 0.00 0.00 0.00 49 1011.4
20260509183313 29 113 1.6 4.8 0.00 0.00 0.00 51 1011.4
20260509182809 30 18 0.0 3.2 0.00 0.00 0.00 50 1011.5
20260509182307 28 0 0.0 4.8 0.00 0.00 0.00 51 1011.7
20260509181803 28 275 1.6 9.7 0.00 0.00 0.00 51 1011.7
20260509181300 29 12 1.6 11.3 0.00 0.00 0.00 54 1011.7
20260509180758 28 321 3.2 6.4 0.00 0.00 0.00 52 1011.8
20260509180254 28 268 3.2 4.8 0.00 0.00 0.00 52 1011.7
20260509175750 28 309 9.7 12.9 0.00 0.00 0.00 53 1011.8
20260509175247 28 310 1.6 3.2 0.00 0.00 0.00 54 1011.7
20260509174743 28 316 3.2 6.4 0.00 0.00 0.00 57 1011.8
20260509174238 28 320 6.4 9.7 0.00 0.00 0.00 55 1011.7
20260509173735 28 300 0.0 1.6 0.00 0.00 0.00 56 1011.8
20260509173230 28 299 3.2 4.8 0.00 0.00 0.00 56 1011.9
20260509172727 27 319 6.4 11.3 0.00 0.00 0.00 56 1012.1
20260509172223 27 271 8.0 12.9 0.00 0.00 0.00 56 1011.9
20260509171718 27 280 3.2 9.7 0.00 0.00 0.00 57 1011.9
20260509171215 27 315 3.2 6.4 0.00 0.00 0.00 59 1012.1
20260509170712 27 309 9.7 11.3 0.00 0.00 0.00 56 1012.1
20260509170208 26 315 6.4 16.1 0.00 0.00 0.00 58 1012.2
20260509165707 27 294 11.3 12.9 0.00 0.00 0.00 58 1012.3
20260509165202 26 352 4.8 6.4 0.00 0.00 0.00 58 1012.3
20260509164658 26 302 11.3 14.5 0.00 0.00 0.00 58 1012.4
20260509164154 26 302 6.4 12.9 0.00 0.00 0.00 57 1012.4
20260509163652 26 311 4.8 11.3 0.00 0.00 0.00 60 1012.6
20260509163147 26 289 6.4 11.3 0.00 0.00 0.00 59 1012.4
20260509162645 26 308 4.8 12.9 0.00 0.00 0.00 60 1012.4
20260509162140 25 328 6.4 11.3 0.00 0.00 0.00 62 1012.3
20260509161637 25 299 11.3 14.5 0.00 0.00 0.00 61 1012.4
20260509161132 26 307 9.7 14.5 0.00 0.00 0.00 62 1012.7
20260509160628 25 331 9.7 14.5 0.00 0.00 0.00 64 1012.5
20260509160124 25 301 4.8 16.1 0.00 0.00 0.00 64 1012.6
20260509155620 25 311 11.3 14.5 0.00 0.00 0.00 63 1012.5
20260509155116 25 311 8.0 16.1 0.00 0.00 0.00 63 1012.3
20260509154612 24 325 9.7 14.5 0.00 0.00 0.00 65 1012.3
20260509154110 24 294 9.7 12.9 0.00 0.00 0.00 65 1012.6
20260509153607 24 315 9.7 16.1 0.00 0.00 0.00 67 1012.4
20260509153104 24 307 8.0 12.9 0.00 0.00 0.00 65 1012.5
20260509152559 24 10 9.7 14.5 0.00 0.00 0.00 67 1012.2
20260509152057 24 324 9.7 11.3 0.00 0.00 0.00 66 1012.5
20260509151553 23 313 11.3 16.1 0.00 0.00 0.00 66 1012.3
20260509151051 23 301 11.3 12.9 0.00 0.00 0.00 67 1012.5
20260509150548 23 310 6.4 12.9 0.00 0.00 0.00 66 1012.6
20260509150047 23 296 8.0 12.9 0.00 0.00 0.00 67 1012.6
20260509145542 23 305 8.0 9.7 0.00 0.00 0.00 66 1012.6
20260509145037 23 297 8.0 11.3 0.00 0.00 0.00 68 1012.5
20260509144534 23 303 3.2 9.7 0.00 0.00 0.00 69 1012.6
20260509144032 22 309 6.4 12.9 0.00 0.00 0.00 71 1012.7
20260509143528 22 303 9.7 12.9 0.00 0.00 0.00 70 1012.9
20260509143026 22 294 8.0 14.5 0.00 0.00 0.00 72 1012.7
20260509142521 22 291 6.4 11.3 0.00 0.00 0.00 72 1012.8
20260509142017 22 303 6.4 11.3 0.00 0.00 0.00 73 1012.7
20260509141514 21 300 6.4 9.7 0.00 0.00 0.00 79 1012.9
20260509141011 21 270 4.8 9.7 0.00 0.00 0.00 82 1012.8
20260509140507 21 304 6.4 12.9 0.00 0.00 0.00 84 1012.7
20260509140006 21 297 8.0 12.9 0.00 0.00 0.00 83 1012.7
20260509135502 20 297 9.7 11.3 0.00 0.00 0.00 84 1012.8
20260509135000 20 295 8.0 11.3 0.00 0.00 0.00 83 1013.0
20260509134457 20 287 9.7 11.3 0.00 0.00 0.00 83 1013.0
20260509133955 20 297 6.4 11.3 0.00 0.00 0.00 84 1013.0
20260509133451 20 286 6.4 9.7 0.00 0.00 0.00 83 1013.2
20260509132949 20 310 9.7 12.9 0.00 0.00 0.00 84 1013.1
20260509132447 20 311 8.0 11.3 0.00 0.00 0.00 84 1013.1
20260509131944 19 292 6.4 9.7 0.00 0.00 0.00 84 1012.9
20260509131441 19 294 6.4 11.3 0.00 0.00 0.00 84 1013.0
20260509130937 19 278 6.4 9.7 0.00 0.00 0.00 84 1012.8
20260509130433 19 269 3.2 4.8 0.00 0.00 0.00 85 1013.0
20260509125930 19 294 4.8 9.7 0.00 0.00 0.00 85 1012.9
20260509125427 18 292 3.2 4.8 0.00 0.00 0.00 86 1012.6
20260509124923 18 312 1.6 4.8 0.00 0.00 0.00 87 1012.6
20260509124420 18 313 4.8 6.4 0.00 0.00 0.00 87 1012.6
20260509123917 18 317 4.8 4.8 0.00 0.00 0.00 87 1012.8
20260509123414 18 300 4.8 6.4 0.00 0.00 0.00 88 1012.8
20260509122910 17 308 4.8 6.4 0.00 0.00 0.00 88 1013.0
20260509122407 17 305 3.2 3.2 0.00 0.00 0.00 89 1012.6
20260509121904 17 300 1.6 3.2 0.00 0.00 0.00 89 1012.6
20260509121401 17 325 1.6 3.2 0.00 0.00 0.00 89 1012.6
20260509120859 17 309 3.2 4.8 0.00 0.00 0.00 89 1012.5
20260509120356 17 317 3.2 4.8 0.00 0.00 0.00 89 1012.4
20260509115854 17 313 1.6 3.2 0.00 0.00 0.00 88 1012.4
20260509115351 17 327 3.2 3.2 0.00 0.00 0.00 88 1012.3
20260509114849 17 325 3.2 4.8 0.00 0.00 0.00 88 1012.1
20260509114348 17 308 1.6 4.8 0.00 0.00 0.00 88 1011.9
20260509113847 17 311 1.6 3.2 0.00 0.00 0.00 87 1012.0
20260509113343 17 321 3.2 4.8 0.00 0.00 0.00 86 1011.8
20260509112839 17 314 3.2 4.8 0.00 0.00 0.00 86 1011.8
20260509112337 17 318 1.6 3.2 0.00 0.00 0.00 85 1011.4
20260509111834 18 317 3.2 4.8 0.00 0.00 0.00 83 1011.5
20260509111331 18 310 3.2 3.2 0.00 0.00 0.00 83 1011.5
20260509110829 18 307 4.8 6.4 0.00 0.00 0.00 83 1011.4
20260509110325 18 297 3.2 3.2 0.00 0.00 0.00 82 1011.4
20260509105823 18 319 1.6 3.2 0.00 0.00 0.00 80 1011.4
20260509105321 18 300 3.2 3.2 0.00 0.00 0.00 79 1011.3
20260509104817 18 312 1.6 1.6 0.00 0.00 0.00 79 1011.4
20260509104314 19 312 1.6 3.2 0.00 0.00 0.00 78 1011.5
20260509103812 19 348 0.0 4.8 0.00 0.00 0.00 79 1011.5
20260509103309 19 254 4.8 6.4 0.00 0.00 0.00 79 1011.6
20260509102808 19 308 3.2 3.2 0.00 0.00 0.00 79 1011.4
20260509102306 19 295 4.8 6.4 0.00 0.00 0.00 80 1011.9
20260509101800 20 227 1.6 3.2 0.00 0.00 0.00 80 1011.7
20260509101256 20 295 3.2 6.4 0.00 0.00 0.00 79 1011.5
20260509100754 20 302 6.4 11.3 0.00 0.00 0.00 80 1011.7
20260509100252 20 289 3.2 9.7 0.00 0.00 0.00 82 1011.7
20260509095748 20 320 1.6 3.2 0.00 0.00 0.00 81 1011.5
20260509095245 20 290 4.8 6.4 0.00 0.00 0.00 82 1012.0
20260509094742 20 254 1.6 3.2 0.00 0.00 0.00 82 1011.6
20260509094239 20 298 0.0 1.6 0.00 0.00 0.00 81 1011.0
20260509093737 20 300 0.0 1.6 0.00 0.00 0.00 80 1010.8
20260509093234 20 157 1.6 4.8 0.00 0.00 0.00 79 1010.5
20260509092732 20 310 1.6 4.8 0.00 0.00 0.00 78 1010.2
20260509092230 20 206 1.6 1.6 0.00 0.00 0.00 78 1010.0
20260509091728 20 133 1.6 4.8 0.00 0.00 0.00 76 1009.7
20260509091223 20 287 1.6 6.4 0.00 0.00 0.00 71 1009.6
20260509090721 20 118 4.8 12.9 0.00 0.00 0.00 70 1009.4
20260509090218 20 105 3.2 3.2 0.00 0.00 0.00 67 1009.1
20260509085716 21 31 1.6 3.2 0.00 0.00 0.00 65 1008.9
20260509085213 20 197 3.2 12.9 0.00 0.00 0.00 66 1008.7
20260509084710 21 40 4.8 4.8 0.00 0.00 0.00 59 1007.7
20260509084206 22 123 4.8 6.4 0.00 0.00 0.00 56 1007.6
20260509083704 21 116 0.0 3.2 0.00 0.00 0.00 57 1007.6
20260509083201 21 335 3.2 4.8 0.00 0.00 0.00 58 1007.8
20260509082658 20 261 1.6 9.7 0.00 0.00 0.00 63 1008.0
20260509082154 20 185 4.8 4.8 0.00 0.00 0.00 69 1007.8
20260509081651 21 218 0.0 1.6 0.00 0.00 0.00 68 1007.9
20260509081148 20 250 0.0 3.2 0.00 0.00 0.00 62 1008.1
20260509080646 20 190 0.0 1.6 0.00 0.00 0.00 71 1008.1
20260509080144 21 190 1.6 3.2 0.00 0.00 0.00 67 1008.4
20260509075642 20 156 1.6 3.2 0.00 0.00 0.00 71 1008.3
20260509075140 20 156 0.0 3.2 0.00 0.00 0.00 74 1008.8
20260509074636 21 172 1.6 6.4 0.00 0.00 0.00 72 1009.3
20260509074132 21 211 0.0 1.6 0.00 0.00 0.00 68 1010.0
20260509073630 21 212 1.6 3.2 0.00 0.00 0.00 64 1010.1
20260509073125 22 327 0.0 1.6 0.00 0.00 0.00 63 1010.4
20260509072623 22 307 9.7 12.9 0.00 0.00 0.00 59 1011.0
20260509072119 22 268 1.6 6.4 0.00 0.00 0.00 63 1010.9
20260509071616 21 269 3.2 9.7 0.00 0.00 0.00 68 1011.4
20260509071114 21 261 3.2 6.4 0.00 0.00 0.00 72 1011.7
20260509070611 21 246 3.2 11.3 0.00 0.00 0.00 75 1012.0
20260509070107 20 245 3.2 12.9 0.00 0.00 0.00 80 1011.8
20260509065602 20 199 4.8 11.3 0.00 0.00 0.00 83 1012.2
20260509065058 20 311 4.8 11.3 0.00 0.00 0.00 86 1012.5
20260509064556 20 247 3.2 9.7 0.00 0.00 0.00 92 1012.7
20260509064054 20 264 3.2 4.8 0.00 0.00 0.00 94 1012.8
20260509063549 20 229 3.2 4.8 0.00 0.00 0.00 94 1013.1
20260509063047 20 234 1.6 4.8 0.00 0.00 0.00 94 1012.9
20260509062544 20 252 3.2 4.8 0.00 0.00 0.00 95 1013.4
20260509062041 20 252 1.6 4.8 0.00 0.00 0.00 94 1013.3
20260509061538 20 259 3.2 9.7 0.00 0.00 0.00 94 1013.6
20260509061035 20 306 4.8 11.3 0.00 0.00 0.00 94 1013.3
20260509060533 20 299 3.2 4.8 0.00 0.00 0.00 94 1013.5
20260509060029 20 292 4.8 11.3 0.00 0.00 0.00 94 1013.5
20260509055524 20 296 6.4 11.3 0.00 0.00 0.00 94 1013.5
20260509055021 20 300 6.4 6.4 0.00 0.00 0.00 94 1013.3
20260509054517 20 284 3.2 4.8 0.00 0.00 0.00 94 1013.4
20260509054016 20 314 3.2 3.2 0.00 0.00 0.00 94 1013.2
20260509053514 20 309 0.0 0.0 0.00 0.00 0.00 94 1012.8
20260509053010 20 309 0.0 0.0 0.00 0.00 0.00 93 1012.9
20260509052508 20 302 3.2 3.2 0.00 0.00 0.00 93 1013.2
20260509052006 20 318 0.0 3.2 0.00 0.00 0.00 93 1013.2
20260509051503 20 352 6.4 11.3 0.00 0.00 0.00 94 1013.4
20260509051000 20 298 3.2 4.8 0.00 0.00 0.00 94 1013.5
20260509050456 20 39 1.6 3.2 0.00 0.00 0.00 94 1013.4
20260509045953 20 299 0.0 3.2 0.00 0.00 0.00 93 1013.5
20260509045451 20 307 1.6 1.6 0.00 0.00 0.00 92 1012.9
20260509044948 20 110 0.0 1.6 0.00 0.00 0.00 92 1012.3
20260509044445 20 117 1.6 3.2 0.00 0.00 0.00 92 1012.0
20260509043942 20 168 3.2 4.8 0.00 0.00 0.00 92 1012.0
20260509043438 20 158 3.2 4.8 0.00 0.00 0.00 92 1011.9
20260509042933 20 169 3.2 6.4 0.00 0.00 0.00 93 1011.7
20260509042431 20 166 1.6 4.8 0.00 0.00 0.00 93 1011.7
20260509041927 20 149 3.2 4.8 0.00 0.00 0.00 93 1011.7
20260509041424 20 201 1.6 4.8 0.00 0.00 0.00 93 1011.6
20260509040922 20 167 1.6 3.2 0.00 0.00 0.00 92 1011.7
20260509040420 20 165 3.2 4.8 0.00 0.00 0.00 92 1011.6
20260509035916 20 137 0.0 1.6 0.00 0.00 0.00 92 1011.7
20260509035414 20 150 1.6 3.2 0.00 0.00 0.00 91 1011.5
20260509034909 20 147 3.2 3.2 0.00 0.00 0.00 91 1011.5
20260509034408 20 156 3.2 3.2 0.00 0.00 0.00 91 1011.7
20260509033905 20 78 0.0 3.2 0.00 0.00 0.00 91 1011.8
20260509033401 20 96 1.6 1.6 0.00 0.00 0.00 91 1011.7
20260509032858 20 74 0.0 3.2 0.00 0.00 0.00 90 1011.5
20260509032355 20 105 0.0 1.6 0.00 0.00 0.00 90 1011.1
20260509031853 21 107 0.0 0.0 0.00 0.00 0.00 89 1011.1
20260509031350 21 120 3.2 6.4 0.00 0.00 0.00 89 1010.7
20260509030848 21 161 3.2 4.8 0.00 0.00 0.00 89 1010.5
20260509030345 21 192 3.2 6.4 0.00 0.00 0.00 89 1010.4
20260509025843 21 183 4.8 6.4 0.00 0.00 0.00 88 1010.5
20260509025338 21 165 6.4 9.7 0.00 0.00 0.00 88 1010.2
20260509024833 21 181 6.4 11.3 0.00 0.00 0.00 88 1010.0
20260509024330 21 168 6.4 11.3 0.00 0.00 0.00 87 1009.9
20260509023827 21 163 4.8 9.7 0.00 0.00 0.00 87 1009.7
20260509023324 21 167 11.3 14.5 0.00 0.00 0.00 87 1009.4
20260509022821 21 174 6.4 14.5 0.00 0.00 0.00 87 1009.1
20260509022318 21 136 6.4 11.3 0.00 0.00 0.00 87 1009.4
20260509021815 21 202 9.7 11.3 0.00 0.00 0.00 87 1009.4
20260509021312 21 157 6.4 16.1 0.00 0.00 0.00 87 1009.5
20260509020809 21 187 8.0 11.3 0.00 0.00 0.00 87 1009.2
20260509020308 21 172 6.4 14.5 0.00 0.00 0.00 87 1009.2
20260509015805 21 142 4.8 11.3 0.00 0.00 0.00 87 1009.0
20260509015306 21 158 8.0 11.3 0.00 0.00 0.00 87 1009.3
20260509014759 21 179 4.8 6.4 0.00 0.00 0.00 87 1009.5
20260509014256 21 166 3.2 6.4 0.00 0.00 0.00 86 1009.7
20260509013753 21 163 4.8 6.4 0.00 0.00 0.00 85 1009.8
20260509013248 21 148 1.6 3.2 0.00 0.00 0.00 85 1009.9
20260509012745 21 178 3.2 4.8 0.00 0.00 0.00 84 1009.8
20260509012242 21 147 3.2 4.8 0.00 0.00 0.00 84 1009.9
20260509011739 22 130 4.8 9.7 0.00 0.00 0.00 83 1009.8
20260509011237 22 165 4.8 11.3 0.00 0.00 0.00 83 1009.9
20260509010734 22 156 1.6 3.2 0.00 0.00 0.00 82 1010.0
20260509010231 22 161 3.2 3.2 0.00 0.00 0.00 82 1010.0
20260509005729 22 167 3.2 4.8 0.00 0.00 0.00 82 1009.7
20260509005226 22 98 1.6 3.2 0.00 0.00 0.00 82 1009.4
20260509004725 22 170 6.4 6.4 0.00 0.00 0.00 81 1009.4
20260509004223 22 193 6.4 14.5 0.00 0.00 0.00 81 1009.3
20260509003721 22 182 3.2 6.4 0.00 0.00 0.00 81 1009.0
20260509003219 22 185 14.5 17.7 0.00 0.00 0.00 80 1009.0
20260509002716 22 170 11.3 16.1 0.00 0.00 0.00 81 1009.0
20260509002213 22 167 6.4 14.5 0.00 0.00 0.00 81 1009.0
20260509001711 22 148 8.0 9.7 0.00 0.00 0.00 81 1009.1
20260509001206 22 137 6.4 11.3 0.00 0.00 0.00 80 1009.2
20260509000705 22 182 6.4 11.3 0.00 0.00 0.00 80 1009.1
20260509000204 22 188 6.4 12.9 0.00 0.00 0.00 79 1009.4
20260508235658 23 156 8.0 14.5 0.00 0.00 0.00 78 1009.2
20260508235155 23 121 6.4 11.3 0.00 0.00 0.00 77 1009.5
20260508234653 23 123 3.2 6.4 0.00 0.00 0.00 77 1009.5
20260508234149 23 219 9.7 12.9 0.00 0.00 0.00 77 1009.6
20260508233648 23 163 6.4 9.7 0.00 0.00 0.00 76 1009.7
20260508233145 23 184 8.0 12.9 0.00 0.00 0.00 77 1009.7
20260508232642 23 171 6.4 9.7 0.00 0.00 0.00 77 1009.4
20260508232139 23 133 6.4 12.9 0.00 0.00 0.00 76 1009.6
20260508231637 23 177 6.4 14.5 0.00 0.00 0.00 76 1009.5
20260508231134 23 144 4.8 9.7 0.00 0.00 0.00 76 1009.6
20260508230630 23 171 9.7 12.9 0.00 0.00 0.00 76 1009.7
20260508230127 23 142 8.0 9.7 0.00 0.00 0.00 75 1009.7
20260508225625 23 164 9.7 14.5 0.00 0.00 0.00 76 1009.7
20260508225121 23 146 4.8 14.5 0.00 0.00 0.00 76 1009.7
20260508224619 23 212 6.4 16.1 0.00 0.00 0.00 75 1009.6
20260508224116 23 147 9.7 14.5 0.00 0.00 0.00 74 1009.5
20260508223614 23 136 6.4 12.9 0.00 0.00 0.00 73 1009.8
20260508223111 24 174 3.2 9.7 0.00 0.00 0.00 74 1009.4